This is the latest recevied weather packets stored in our database for station/object OK2ZA-6. If no packets are shown the sender has not sent any weather packets the latest 10 day(s).
| Time | Temp. | Humidity | Pressure | Rain* | Wind** | Luminosity | Snow |
|---|---|---|---|---|---|---|---|
| 1787995804 | 21.67° C | 63% | 1017.2 hPa | 0 mm | - | - | - |
| 1787995204 | 22.22° C | 61% | 1017.2 hPa | 0 mm | - | - | - |
| 1787994604 | 21.67° C | 63% | 1017.2 hPa | 0 mm | - | - | - |
| 1787994004 | 21.11° C | 64% | 1017.2 hPa | 0 mm | - | - | - |
| 1787993403 | 21.11° C | 63% | 1017.3 hPa | 0 mm | - | - | - |
| 1787992804 | 21.11° C | 65% | 1017.1 hPa | 0 mm | - | - | - |
| 1787992204 | 20.56° C | 67% | 1017.1 hPa | 0 mm | - | - | - |
| 1787991604 | 20.56° C | 70% | 1017.1 hPa | 0 mm | - | - | - |
| 1787991004 | 20° C | 71% | 1017 hPa | 0 mm | - | - | - |
| 1787990404 | 19.44° C | 74% | 1017 hPa | 0 mm | - | - | - |
| 1787989804 | 19.44° C | 76% | 1017.1 hPa | 0 mm | - | - | - |
| 1787989204 | 19.44° C | 76% | 1017 hPa | 0 mm | - | - | - |
| 1787988604 | 18.89° C | 79% | 1016.9 hPa | 0 mm | - | - | - |
| 1787988004 | 18.33° C | 82% | 1016.9 hPa | 0 mm | - | - | - |
| 1787987404 | 18.33° C | 83% | 1016.8 hPa | 0 mm | - | - | - |
| 1787986804 | 17.78° C | 85% | 1016.6 hPa | 0 mm | - | - | - |
| 1787986204 | 17.78° C | 87% | 1016.6 hPa | 0 mm | - | - | - |
| 1787985604 | 17.22° C | 88% | 1016.6 hPa | 0 mm | - | - | - |
| 1787985004 | 16.67° C | 88% | 1016.7 hPa | 0 mm | - | - | - |
| 1787984404 | 16.67° C | 89% | 1016.6 hPa | 0 mm | - | - | - |
| 1787983804 | 16.67° C | 89% | 1016.6 hPa | 0 mm | - | - | - |
| 1787983204 | 16.11° C | 89% | 1016.6 hPa | 0 mm | - | - | - |
| 1787982604 | 15.56° C | 90% | 1016.8 hPa | 0 mm | - | - | - |
| 1787982004 | 15.56° C | 89% | 1016.8 hPa | 0 mm | - | - | - |
| 1787981404 | 15.56° C | 90% | 1016.8 hPa | 0 mm | - | - | - |
* Rain latest hour (hover to see other rain measurements)
** Current wind speed in m/s (hover to see current wind gust speed)